TimeEST,TemperatureF,Dew PointF,Humidity,Sea Level PressureIn,VisibilityMPH,Wind Direction,Wind SpeedMPH,Gust SpeedMPH,PrecipitationIn,Events,Conditions,WindDirDegrees,DateUTC
12:56 AM,28.0,26.1,92,30.64,10.0,Calm,Calm,-,N/A,,Clear,0,2012-11-18 05:56:00
1:56 AM,27.0,25.0,92,30.63,10.0,Calm,Calm,-,N/A,,Clear,0,2012-11-18 06:56:00
2:56 AM,27.0,25.0,92,30.61,10.0,Calm,Calm,-,N/A,,Clear,0,2012-11-18 07:56:00
3:56 AM,28.0,26.1,92,30.62,10.0,Calm,Calm,-,N/A,,Clear,0,2012-11-18 08:56:00
4:56 AM,28.9,27.0,92,30.64,10.0,Calm,Calm,-,N/A,,Clear,0,2012-11-18 09:56:00
5:56 AM,30.0,28.0,92,30.65,10.0,Calm,Calm,-,N/A,,Clear,0,2012-11-18 10:56:00
6:56 AM,28.9,27.0,92,30.67,10.0,Calm,Calm,-,N/A,,Clear,0,2012-11-18 11:56:00
7:56 AM,39.9,36.0,86,30.67,10.0,NE,4.6,-,N/A,,Clear,40,2012-11-18 12:56:00
8:56 AM,46.0,34.0,63,30.66,10.0,ENE,9.2,-,N/A,,Clear,60,2012-11-18 13:56:00
9:56 AM,48.0,33.1,56,30.67,10.0,NE,8.1,-,N/A,,Clear,50,2012-11-18 14:56:00
10:56 AM,48.9,33.1,54,30.66,10.0,NNE,11.5,-,N/A,,Clear,30,2012-11-18 15:56:00
11:56 AM,48.9,33.1,54,30.64,10.0,North,13.8,-,N/A,,Clear,10,2012-11-18 16:56:00
12:56 PM,48.9,33.1,54,30.63,10.0,NE,12.7,18.4,N/A,,Clear,40,2012-11-18 17:56:00
1:56 PM,48.0,34.0,58,30.61,10.0,NE,12.7,-,N/A,,Clear,50,2012-11-18 18:56:00
2:56 PM,46.9,33.1,59,30.62,10.0,NNE,10.4,-,N/A,,Clear,30,2012-11-18 19:56:00
3:56 PM,45.0,33.1,63,30.63,10.0,NE,8.1,-,N/A,,Clear,40,2012-11-18 20:56:00
4:56 PM,39.9,32.0,73,30.64,10.0,NNE,3.5,-,N/A,,Clear,20,2012-11-18 21:56:00
5:56 PM,39.0,32.0,76,30.63,10.0,NE,4.6,-,N/A,,Clear,40,2012-11-18 22:56:00
6:56 PM,36.0,30.9,82,30.63,10.0,NE,4.6,-,N/A,,Clear,50,2012-11-18 23:56:00
7:56 PM,37.0,33.1,86,30.62,10.0,Calm,Calm,-,N/A,,Clear,0,2012-11-19 00:56:00
8:56 PM,35.1,33.1,92,30.61,10.0,Calm,Calm,-,N/A,,Clear,0,2012-11-19 01:56:00
9:56 PM,35.1,32.0,89,30.60,10.0,Calm,Calm,-,N/A,,Scattered Clouds,0,2012-11-19 02:56:00
10:03 PM,35.6,32.0,87,30.59,10.0,NNE,3.5,-,N/A,,Mostly Cloudy,20,2012-11-19 03:03:00
10:56 PM,37.9,35.1,89,30.60,10.0,Calm,Calm,-,N/A,,Mostly Cloudy,0,2012-11-19 03:56:00
11:56 PM,37.9,34.0,86,30.58,10.0,Calm,Calm,-,N/A,,Mostly Cloudy,0,2012-11-19 04:56:00